| time (UTC) | temp C | wind direction | speed KPH | gust KPH | rain 1hr cm | rain 24hr cm | rain mn cm | humidity % | barometer mb |
| 20260504174104 | 25 | 288 | 8.0 | 9.7 | 0.00 | 0.00 | 0.00 | 34 | 1016.4 |
| 20260504174006 | 25 | 281 | 8.0 | 8.0 | 0.00 | 0.00 | 0.00 | 35 | 1016.5 |
| 20260504173903 | 25 | 307 | 4.8 | 6.4 | 0.00 | 0.00 | 0.00 | 33 | 1016.5 |
| 20260504173802 | 25 | 304 | 6.4 | 6.4 | 0.00 | 0.00 | 0.00 | 34 | 1016.5 |
| 20260504173702 | 25 | 318 | 3.2 | 6.4 | 0.00 | 0.00 | 0.00 | 34 | 1016.5 |
| 20260504173603 | 25 | 306 | 4.8 | 6.4 | 0.00 | 0.00 | 0.00 | 34 | 1016.6 |
| 20260504173505 | 25 | 311 | 4.8 | 6.4 | 0.00 | 0.00 | 0.00 | 34 | 1016.6 |
| 20260504173402 | 25 | 299 | 4.8 | 6.4 | 0.00 | 0.00 | 0.00 | 32 | 1016.7 |
| 20260504173301 | 25 | 51 | 0.0 | 6.4 | 0.00 | 0.00 | 0.00 | 34 | 1016.7 |
| 20260504173102 | 25 | 334 | 0.0 | 6.4 | 0.00 | 0.00 | 0.00 | 32 | 1016.7 |
| 20260504173006 | 25 | 126 | 4.8 | 6.4 | 0.00 | 0.00 | 0.00 | 33 | 1016.7 |
| 20260504172902 | 25 | 176 | 1.6 | 6.4 | 0.00 | 0.00 | 0.00 | 35 | 1016.7 |
| 20260504172802 | 25 | 186 | 4.8 | 6.4 | 0.00 | 0.00 | 0.00 | 34 | 1016.6 |
| 20260504172701 | 25 | 267 | 0.0 | 6.4 | 0.00 | 0.00 | 0.00 | 34 | 1016.5 |
| 20260504172603 | 26 | 154 | 1.6 | 6.4 | 0.00 | 0.00 | 0.00 | 33 | 1016.5 |
| 20260504172506 | 26 | 209 | 4.8 | 8.0 | 0.00 | 0.00 | 0.00 | 33 | 1016.6 |
| 20260504172401 | 26 | 256 | 0.0 | 8.0 | 0.00 | 0.00 | 0.00 | 31 | 1016.6 |
| 20260504172303 | 26 | 352 | 4.8 | 8.0 | 0.00 | 0.00 | 0.00 | 33 | 1016.7 |
| 20260504172201 | 26 | 301 | 3.2 | 8.0 | 0.00 | 0.00 | 0.00 | 31 | 1016.8 |
| 20260504172102 | 26 | 51 | 4.8 | 8.0 | 0.00 | 0.00 | 0.00 | 31 | 1016.8 |
| 20260504172005 | 27 | 158 | 1.6 | 8.0 | 0.00 | 0.00 | 0.00 | 31 | 1016.9 |
| 20260504171903 | 27 | 245 | 3.2 | 8.0 | 0.00 | 0.00 | 0.00 | 33 | 1016.9 |
| 20260504171801 | 26 | 348 | 3.2 | 8.0 | 0.00 | 0.00 | 0.00 | 32 | 1016.9 |
| 20260504171703 | 26 | 45 | 3.2 | 8.0 | 0.00 | 0.00 | 0.00 | 33 | 1016.9 |
| 20260504171602 | 26 | 34 | 4.8 | 8.0 | 0.00 | 0.00 | 0.00 | 35 | 1016.9 |
| 20260504171506 | 25 | 31 | 3.2 | 6.4 | 0.00 | 0.00 | 0.00 | 34 | 1016.9 |
| 20260504171402 | 25 | 37 | 3.2 | 8.0 | 0.00 | 0.00 | 0.00 | 34 | 1016.9 |
| 20260504171303 | 25 | 338 | 3.2 | 8.0 | 0.00 | 0.00 | 0.00 | 33 | 1016.9 |
| 20260504171202 | 25 | 333 | 3.2 | 8.0 | 0.00 | 0.00 | 0.00 | 35 | 1017.0 |
| 20260504171102 | 25 | 326 | 3.2 | 9.7 | 0.00 | 0.00 | 0.00 | 34 | 1016.9 |
| 20260504171006 | 25 | 345 | 4.8 | 9.7 | 0.00 | 0.00 | 0.00 | 34 | 1017.0 |
| 20260504170903 | 24 | 10 | 6.4 | 9.7 | 0.00 | 0.00 | 0.00 | 35 | 1016.9 |
| 20260504170703 | 24 | 312 | 0.0 | 9.7 | 0.00 | 0.00 | 0.00 | 33 | 1016.9 |
| 20260504170601 | 24 | 300 | 3.2 | 9.7 | 0.00 | 0.00 | 0.00 | 33 | 1017.0 |
| 20260504170505 | 24 | 343 | 3.2 | 9.7 | 0.00 | 0.00 | 0.00 | 33 | 1017.0 |
| 20260504170401 | 24 | 22 | 0.0 | 9.7 | 0.00 | 0.00 | 0.00 | 35 | 1017.0 |
| 20260504170203 | 24 | 324 | 4.8 | 9.7 | 0.00 | 0.00 | 0.00 | 33 | 1016.9 |
| 20260504160400 | 23 | 291 | 3.2 | 6.4 | 0.00 | 0.00 | 0.00 | 36 | 1017.6 |
| 20260504160300 | 23 | 326 | 3.2 | 6.4 | 0.00 | 0.00 | 0.00 | 35 | 1017.7 |
| 20260504160201 | 23 | 342 | 3.2 | 6.4 | 0.00 | 0.00 | 0.00 | 35 | 1017.6 |
| 20260504151100 | 22 | 314 | 6.4 | 8.0 | 0.00 | 0.00 | 0.00 | 41 | 1017.8 |
| 20260504151006 | 22 | 213 | 4.8 | 8.0 | 0.00 | 0.00 | 0.00 | 41 | 1017.8 |
| 20260504150802 | 22 | 297 | 4.8 | 8.0 | 0.00 | 0.00 | 0.00 | 41 | 1017.8 |
| 20260504150602 | 22 | 335 | 1.6 | 6.4 | 0.00 | 0.00 | 0.00 | 41 | 1017.8 |
| 20260504150401 | 22 | 307 | 4.8 | 6.4 | 0.00 | 0.00 | 0.00 | 41 | 1017.8 |
| 20260504150300 | 22 | 307 | 3.2 | 6.4 | 0.00 | 0.00 | 0.00 | 41 | 1017.8 |
| 20260504141301 | 21 | 165 | 1.6 | 4.8 | 0.00 | 0.00 | 0.00 | 40 | 1017.8 |
| 20260504141201 | 21 | 127 | 1.6 | 4.8 | 0.00 | 0.00 | 0.00 | 41 | 1017.8 |
| 20260504141100 | 21 | 326 | 0.0 | 4.8 | 0.00 | 0.00 | 0.00 | 41 | 1017.8 |
| 20260504140901 | 21 | 155 | 0.0 | 4.8 | 0.00 | 0.00 | 0.00 | 39 | 1017.8 |
| 20260504140800 | 21 | 303 | 0.0 | 4.8 | 0.00 | 0.00 | 0.00 | 40 | 1017.8 |
| 20260504140602 | 21 | 298 | 0.0 | 4.8 | 0.00 | 0.00 | 0.00 | 40 | 1017.9 |
| 20260504140505 | 21 | 271 | 1.6 | 4.8 | 0.00 | 0.00 | 0.00 | 43 | 1017.9 |
| 20260504140401 | 21 | 250 | 0.0 | 3.2 | 0.00 | 0.00 | 0.00 | 42 | 1017.8 |
| 20260504140301 | 21 | 212 | 0.0 | 3.2 | 0.00 | 0.00 | 0.00 | 42 | 1017.9 |
| 20260504140200 | 20 | 186 | 0.0 | 3.2 | 0.00 | 0.00 | 0.00 | 43 | 1017.8 |
| 20260504130800 | 17 | 139 | 0.0 | 3.2 | 0.00 | 0.00 | 0.00 | 62 | 1017.8 |
| 20260504130700 | 17 | 139 | 0.0 | 3.2 | 0.00 | 0.00 | 0.00 | 67 | 1017.8 |
| 20260504130601 | 17 | 153 | 0.0 | 3.2 | 0.00 | 0.00 | 0.00 | 68 | 1017.8 |
| 20260504130505 | 17 | 169 | 0.0 | 3.2 | 0.00 | 0.00 | 0.00 | 68 | 1017.8 |
| 20260504130400 | 17 | 218 | 0.0 | 0.0 | 0.00 | 0.00 | 0.00 | 69 | 1017.7 |
| 20260504130301 | 16 | 218 | 0.0 | 4.8 | 0.00 | 0.00 | 0.00 | 69 | 1017.7 |
| 20260504130201 | 16 | 218 | 0.0 | 4.8 | 0.00 | 0.00 | 0.00 | 70 | 1017.7 |
| 20260504120302 | 11 | 237 | 0.0 | 3.2 | 0.00 | 0.00 | 0.00 | 83 | 1017.8 |
| 20260504120201 | 11 | 252 | 0.0 | 3.2 | 0.00 | 0.00 | 0.00 | 84 | 1017.9 |
| 20260504110600 | 8 | 200 | 1.6 | 4.8 | 0.00 | 0.00 | 0.00 | 85 | 1017.3 |
| 20260504110402 | 8 | 200 | 0.0 | 4.8 | 0.00 | 0.00 | 0.00 | 85 | 1017.2 |
| 20260504110201 | 8 | 176 | 0.0 | 4.8 | 0.00 | 0.00 | 0.00 | 85 | 1017.3 |
| 20260504100601 | 8 | 222 | 0.0 | 3.2 | 0.00 | 0.00 | 0.00 | 84 | 1017.3 |
| 20260504100504 | 8 | 222 | 0.0 | 3.2 | 0.00 | 0.00 | 0.00 | 84 | 1017.3 |
| 20260504100400 | 8 | 206 | 1.6 | 3.2 | 0.00 | 0.00 | 0.00 | 84 | 1017.4 |
| 20260504100301 | 8 | 191 | 0.0 | 3.2 | 0.00 | 0.00 | 0.00 | 84 | 1017.3 |
| 20260504100200 | 8 | 197 | 0.0 | 3.2 | 0.00 | 0.00 | 0.00 | 84 | 1017.2 |
| 20260504082006 | 10 | 211 | 1.6 | 3.2 | 0.00 | 0.00 | 0.00 | 81 | 1017.8 |
| 20260504081801 | 10 | 234 | 0.0 | 3.2 | 0.00 | 0.00 | 0.00 | 81 | 1017.8 |
| 20260504081700 | 10 | 226 | 0.0 | 3.2 | 0.00 | 0.00 | 0.00 | 81 | 1017.8 |
| 20260504081602 | 10 | 209 | 1.6 | 3.2 | 0.00 | 0.00 | 0.00 | 81 | 1017.8 |
| 20260504081504 | 10 | 221 | 0.0 | 3.2 | 0.00 | 0.00 | 0.00 | 81 | 1017.8 |
| 20260504081401 | 10 | 217 | 0.0 | 3.2 | 0.00 | 0.00 | 0.00 | 81 | 1017.8 |
| 20260504081301 | 10 | 220 | 0.0 | 3.2 | 0.00 | 0.00 | 0.00 | 81 | 1017.8 |
| 20260504081201 | 10 | 227 | 1.6 | 3.2 | 0.00 | 0.00 | 0.00 | 81 | 1017.8 |
| 20260504080902 | 10 | 236 | 0.0 | 3.2 | 0.00 | 0.00 | 0.00 | 81 | 1017.8 |
| 20260504080800 | 10 | 236 | 0.0 | 3.2 | 0.00 | 0.00 | 0.00 | 81 | 1017.8 |
| 20260504080701 | 10 | 236 | 0.0 | 3.2 | 0.00 | 0.00 | 0.00 | 81 | 1017.8 |
| 20260504080600 | 10 | 218 | 0.0 | 3.2 | 0.00 | 0.00 | 0.00 | 80 | 1017.8 |
| 20260504080504 | 10 | 218 | 0.0 | 3.2 | 0.00 | 0.00 | 0.00 | 80 | 1017.8 |
| 20260504060200 | 11 | 197 | 0.0 | 3.2 | 0.00 | 0.00 | 0.00 | 77 | 1018.3 |
| 20260504050702 | 12 | 250 | 3.2 | 4.8 | 0.00 | 0.00 | 0.00 | 75 | 1018.7 |
| 20260504050505 | 12 | 250 | 3.2 | 4.8 | 0.00 | 0.00 | 0.00 | 75 | 1018.8 |
| 20260504050401 | 12 | 250 | 3.2 | 4.8 | 0.00 | 0.00 | 0.00 | 75 | 1018.8 |
| 20260504050302 | 12 | 250 | 3.2 | 4.8 | 0.00 | 0.00 | 0.00 | 75 | 1018.8 |
| 20260504050009 | 12 | 250 | 3.2 | 4.8 | 0.00 | 0.00 | 0.00 | 75 | 1018.7 |
| 20260504045902 | 12 | 237 | 0.0 | 4.8 | 0.00 | 0.00 | 0.00 | 75 | 1018.7 |
| 20260504045702 | 12 | 258 | 3.2 | 4.8 | 0.00 | 0.00 | 0.00 | 75 | 1018.6 |
| 20260504045601 | 12 | 244 | 3.2 | 4.8 | 0.00 | 0.00 | 0.00 | 75 | 1018.6 |
| 20260504045506 | 12 | 241 | 3.2 | 3.2 | 0.00 | 0.00 | 0.00 | 75 | 1018.6 |
| 20260504045404 | 12 | 235 | 3.2 | 3.2 | 0.00 | 0.00 | 0.00 | 74 | 1018.5 |
| 20260504045102 | 12 | 230 | 0.0 | 4.8 | 0.00 | 0.00 | 0.00 | 74 | 1018.7 |
| 20260504045005 | 12 | 229 | 0.0 | 4.8 | 0.00 | 0.00 | 0.00 | 74 | 1018.7 |
| 20260504044903 | 12 | 221 | 1.6 | 4.8 | 0.00 | 0.00 | 0.00 | 74 | 1018.7 |
| 20260504044803 | 12 | 225 | 0.0 | 4.8 | 0.00 | 0.00 | 0.00 | 74 | 1018.6 |
| 20260504044703 | 12 | 233 | 0.0 | 4.8 | 0.00 | 0.00 | 0.00 | 74 | 1018.7 |
| 20260504044603 | 12 | 251 | 0.0 | 4.8 | 0.00 | 0.00 | 0.00 | 74 | 1018.7 |
| 20260504044506 | 12 | 250 | 3.2 | 4.8 | 0.00 | 0.00 | 0.00 | 74 | 1018.7 |
| 20260504044402 | 12 | 267 | 0.0 | 4.8 | 0.00 | 0.00 | 0.00 | 74 | 1018.6 |
| 20260504044302 | 12 | 265 | 0.0 | 4.8 | 0.00 | 0.00 | 0.00 | 74 | 1018.6 |
| 20260504044203 | 12 | 260 | 3.2 | 4.8 | 0.00 | 0.00 | 0.00 | 74 | 1018.5 |
| 20260504044102 | 12 | 257 | 3.2 | 4.8 | 0.00 | 0.00 | 0.00 | 74 | 1018.5 |
| 20260504044005 | 12 | 255 | 1.6 | 4.8 | 0.00 | 0.00 | 0.00 | 74 | 1018.5 |
| 20260504043903 | 12 | 285 | 0.0 | 4.8 | 0.00 | 0.00 | 0.00 | 74 | 1018.4 |
| 20260504043803 | 12 | 269 | 0.0 | 4.8 | 0.00 | 0.00 | 0.00 | 74 | 1018.5 |
| 20260504043603 | 12 | 269 | 3.2 | 4.8 | 0.00 | 0.00 | 0.00 | 74 | 1018.4 |
| 20260504043506 | 12 | 267 | 0.0 | 4.8 | 0.00 | 0.00 | 0.00 | 74 | 1018.4 |
| 20260504043402 | 12 | 260 | 3.2 | 4.8 | 0.00 | 0.00 | 0.00 | 73 | 1018.4 |
| 20260504043302 | 12 | 257 | 4.8 | 4.8 | 0.00 | 0.00 | 0.00 | 73 | 1018.3 |
| 20260504043203 | 12 | 228 | 3.2 | 4.8 | 0.00 | 0.00 | 0.00 | 73 | 1018.4 |
| 20260504043102 | 12 | 240 | 3.2 | 4.8 | 0.00 | 0.00 | 0.00 | 72 | 1018.3 |
| 20260504043008 | 12 | 259 | 3.2 | 6.4 | 0.00 | 0.00 | 0.00 | 72 | 1018.4 |
| 20260504042903 | 12 | 248 | 3.2 | 6.4 | 0.00 | 0.00 | 0.00 | 72 | 1018.3 |
| 20260504042803 | 12 | 240 | 0.0 | 6.4 | 0.00 | 0.00 | 0.00 | 72 | 1018.4 |
| 20260504042702 | 12 | 257 | 3.2 | 6.4 | 0.00 | 0.00 | 0.00 | 72 | 1018.4 |
| 20260504042604 | 12 | 258 | 1.6 | 6.4 | 0.00 | 0.00 | 0.00 | 72 | 1018.5 |
| 20260504042506 | 12 | 278 | 3.2 | 6.4 | 0.00 | 0.00 | 0.00 | 72 | 1018.5 |
| 20260504042403 | 12 | 248 | 3.2 | 6.4 | 0.00 | 0.00 | 0.00 | 72 | 1018.4 |
| 20260504042304 | 12 | 264 | 1.6 | 6.4 | 0.00 | 0.00 | 0.00 | 72 | 1018.4 |
| 20260504042203 | 12 | 262 | 4.8 | 6.4 | 0.00 | 0.00 | 0.00 | 71 | 1018.4 |
| 20260504042102 | 12 | 274 | 4.8 | 4.8 | 0.00 | 0.00 | 0.00 | 71 | 1018.4 |
| 20260504042006 | 12 | 264 | 3.2 | 4.8 | 0.00 | 0.00 | 0.00 | 71 | 1018.4 |
| 20260504041902 | 12 | 274 | 3.2 | 4.8 | 0.00 | 0.00 | 0.00 | 71 | 1018.3 |
| 20260504041803 | 12 | 267 | 1.6 | 4.8 | 0.00 | 0.00 | 0.00 | 71 | 1018.3 |
| 20260504041703 | 12 | 251 | 3.2 | 4.8 | 0.00 | 0.00 | 0.00 | 71 | 1018.4 |
| 20260504041602 | 12 | 267 | 3.2 | 4.8 | 0.00 | 0.00 | 0.00 | 71 | 1018.3 |
| 20260504041505 | 12 | 250 | 3.2 | 4.8 | 0.00 | 0.00 | 0.00 | 70 | 1018.4 |
| 20260504041301 | 12 | 274 | 3.2 | 4.8 | 0.00 | 0.00 | 0.00 | 70 | 1018.3 |
| 20260504041203 | 13 | 245 | 3.2 | 4.8 | 0.00 | 0.00 | 0.00 | 70 | 1018.3 |
| 20260504041102 | 13 | 240 | 0.0 | 4.8 | 0.00 | 0.00 | 0.00 | 70 | 1018.3 |
| 20260504041006 | 13 | 234 | 0.0 | 4.8 | 0.00 | 0.00 | 0.00 | 70 | 1018.3 |
| 20260504040903 | 13 | 237 | 3.2 | 4.8 | 0.00 | 0.00 | 0.00 | 70 | 1018.2 |
| 20260504040803 | 13 | 231 | 0.0 | 4.8 | 0.00 | 0.00 | 0.00 | 69 | 1018.2 |
| 20260504040703 | 13 | 243 | 3.2 | 4.8 | 0.00 | 0.00 | 0.00 | 69 | 1018.2 |
| 20260504040603 | 13 | 229 | 0.0 | 4.8 | 0.00 | 0.00 | 0.00 | 69 | 1018.3 |
| 20260504040505 | 13 | 234 | 3.2 | 4.8 | 0.00 | 0.00 | 0.00 | 69 | 1018.3 |
| 20260504040202 | 13 | 269 | 4.8 | 4.8 | 0.00 | 0.00 | 0.00 | 69 | 1018.2 |
| 20260504040103 | 13 | 243 | 4.8 | 4.8 | 0.00 | 0.00 | 0.00 | 68 | 1018.3 |
| 20260504040007 | 13 | 246 | 4.8 | 4.8 | 0.00 | 0.00 | 0.00 | 69 | 1018.3 |
| 20260504035904 | 13 | 246 | 3.2 | 4.8 | 0.00 | 0.00 | 0.00 | 69 | 1018.3 |
| 20260504035802 | 13 | 250 | 0.0 | 3.2 | 0.00 | 0.00 | 0.00 | 69 | 1018.2 |
| 20260504035702 | 13 | 253 | 3.2 | 3.2 | 0.00 | 0.00 | 0.00 | 69 | 1018.3 |
| 20260504035602 | 13 | 262 | 1.6 | 4.8 | 0.00 | 0.00 | 0.00 | 69 | 1018.3 |
| 20260504035505 | 13 | 242 | 0.0 | 4.8 | 0.00 | 0.00 | 0.00 | 69 | 1018.3 |
| 20260504035402 | 13 | 233 | 0.0 | 4.8 | 0.00 | 0.00 | 0.00 | 69 | 1018.3 |
| 20260504035304 | 13 | 239 | 1.6 | 4.8 | 0.00 | 0.00 | 0.00 | 69 | 1018.3 |
| 20260504035203 | 13 | 232 | 0.0 | 4.8 | 0.00 | 0.00 | 0.00 | 70 | 1018.3 |
| 20260504035102 | 13 | 232 | 1.6 | 4.8 | 0.00 | 0.00 | 0.00 | 70 | 1018.3 |
| 20260504035006 | 13 | 250 | 1.6 | 4.8 | 0.00 | 0.00 | 0.00 | 70 | 1018.3 |
| 20260504034902 | 13 | 246 | 1.6 | 4.8 | 0.00 | 0.00 | 0.00 | 70 | 1018.3 |
| 20260504034703 | 13 | 235 | 3.2 | 4.8 | 0.00 | 0.00 | 0.00 | 69 | 1018.3 |
| 20260504034603 | 13 | 232 | 3.2 | 4.8 | 0.00 | 0.00 | 0.00 | 69 | 1018.4 |
| 20260504034402 | 13 | 250 | 1.6 | 4.8 | 0.00 | 0.00 | 0.00 | 69 | 1018.4 |
| 20260504034303 | 13 | 259 | 3.2 | 4.8 | 0.00 | 0.00 | 0.00 | 69 | 1018.4 |
| 20260504034202 | 13 | 262 | 3.2 | 4.8 | 0.00 | 0.00 | 0.00 | 69 | 1018.4 |
| 20260504034102 | 13 | 259 | 3.2 | 4.8 | 0.00 | 0.00 | 0.00 | 68 | 1018.3 |
| 20260504034006 | 13 | 269 | 1.6 | 4.8 | 0.00 | 0.00 | 0.00 | 68 | 1018.3 |
| 20260504033902 | 13 | 263 | 1.6 | 4.8 | 0.00 | 0.00 | 0.00 | 68 | 1018.3 |
| 20260504033802 | 13 | 255 | 0.0 | 4.8 | 0.00 | 0.00 | 0.00 | 69 | 1018.3 |
| 20260504033703 | 13 | 259 | 1.6 | 4.8 | 0.00 | 0.00 | 0.00 | 69 | 1018.2 |
| 20260504033602 | 13 | 283 | 0.0 | 4.8 | 0.00 | 0.00 | 0.00 | 69 | 1018.3 |
| 20260504033505 | 13 | 253 | 3.2 | 4.8 | 0.00 | 0.00 | 0.00 | 69 | 1018.2 |
| 20260504033402 | 13 | 252 | 4.8 | 4.8 | 0.00 | 0.00 | 0.00 | 69 | 1018.3 |
| 20260504033303 | 13 | 264 | 3.2 | 4.8 | 0.00 | 0.00 | 0.00 | 68 | 1018.3 |
| 20260504033202 | 13 | 233 | 3.2 | 4.8 | 0.00 | 0.00 | 0.00 | 68 | 1018.2 |
| 20260504033104 | 13 | 250 | 4.8 | 4.8 | 0.00 | 0.00 | 0.00 | 68 | 1018.3 |
| 20260504033006 | 13 | 248 | 4.8 | 4.8 | 0.00 | 0.00 | 0.00 | 67 | 1018.3 |
| 20260504032702 | 13 | 245 | 3.2 | 4.8 | 0.00 | 0.00 | 0.00 | 67 | 1018.3 |
| 20260504032602 | 13 | 245 | 0.0 | 4.8 | 0.00 | 0.00 | 0.00 | 67 | 1018.3 |
| 20260504032505 | 13 | 255 | 4.8 | 4.8 | 0.00 | 0.00 | 0.00 | 67 | 1018.3 |
| 20260504032403 | 13 | 257 | 3.2 | 4.8 | 0.00 | 0.00 | 0.00 | 66 | 1018.2 |
| 20260504032304 | 13 | 242 | 4.8 | 4.8 | 0.00 | 0.00 | 0.00 | 66 | 1018.3 |
| 20260504032203 | 13 | 250 | 3.2 | 4.8 | 0.00 | 0.00 | 0.00 | 66 | 1018.3 |
| 20260504032103 | 13 | 250 | 3.2 | 4.8 | 0.00 | 0.00 | 0.00 | 66 | 1018.3 |
| 20260504032005 | 13 | 245 | 4.8 | 4.8 | 0.00 | 0.00 | 0.00 | 65 | 1018.3 |
| 20260504031902 | 13 | 233 | 3.2 | 4.8 | 0.00 | 0.00 | 0.00 | 65 | 1018.4 |
| 20260504031802 | 13 | 236 | 4.8 | 4.8 | 0.00 | 0.00 | 0.00 | 65 | 1018.3 |
| 20260504031703 | 13 | 243 | 3.2 | 4.8 | 0.00 | 0.00 | 0.00 | 65 | 1018.3 |
| 20260504031602 | 14 | 230 | 1.6 | 4.8 | 0.00 | 0.00 | 0.00 | 65 | 1018.3 |
| 20260504031506 | 14 | 230 | 1.6 | 4.8 | 0.00 | 0.00 | 0.00 | 65 | 1018.3 |
| 20260504031403 | 14 | 225 | 3.2 | 4.8 | 0.00 | 0.00 | 0.00 | 65 | 1018.3 |
| 20260504031304 | 14 | 238 | 0.0 | 4.8 | 0.00 | 0.00 | 0.00 | 65 | 1018.3 |
| 20260504031204 | 14 | 237 | 3.2 | 4.8 | 0.00 | 0.00 | 0.00 | 65 | 1018.2 |
| 20260504031103 | 14 | 242 | 3.2 | 4.8 | 0.00 | 0.00 | 0.00 | 65 | 1018.3 |
| 20260504031007 | 14 | 258 | 3.2 | 4.8 | 0.00 | 0.00 | 0.00 | 65 | 1018.3 |
| 20260504030903 | 14 | 246 | 3.2 | 4.8 | 0.00 | 0.00 | 0.00 | 65 | 1018.3 |
| 20260504030803 | 14 | 245 | 3.2 | 4.8 | 0.00 | 0.00 | 0.00 | 65 | 1018.3 |
| 20260504030702 | 14 | 251 | 3.2 | 4.8 | 0.00 | 0.00 | 0.00 | 65 | 1018.2 |
| 20260504030603 | 14 | 255 | 4.8 | 4.8 | 0.00 | 0.00 | 0.00 | 65 | 1018.3 |
| 20260504030505 | 14 | 255 | 4.8 | 4.8 | 0.00 | 0.00 | 0.00 | 65 | 1018.3 |
| 20260504030403 | 14 | 255 | 4.8 | 4.8 | 0.00 | 0.00 | 0.00 | 64 | 1018.2 |
| 20260504030303 | 14 | 248 | 3.2 | 4.8 | 0.00 | 0.00 | 0.00 | 64 | 1018.2 |
| 20260504030202 | 14 | 236 | 0.0 | 4.8 | 0.00 | 0.00 | 0.00 | 64 | 1018.3 |
| 20260504030006 | 14 | 236 | 3.2 | 4.8 | 0.00 | 0.00 | 0.00 | 63 | 1018.2 |
| 20260504025901 | 14 | 255 | 3.2 | 4.8 | 0.00 | 0.00 | 0.00 | 64 | 1018.3 |
| 20260504025802 | 14 | 245 | 3.2 | 4.8 | 0.00 | 0.00 | 0.00 | 63 | 1018.3 |
| 20260504025702 | 14 | 242 | 3.2 | 4.8 | 0.00 | 0.00 | 0.00 | 63 | 1018.3 |
| 20260504025602 | 14 | 248 | 3.2 | 4.8 | 0.00 | 0.00 | 0.00 | 63 | 1018.3 |
| 20260504025505 | 14 | 241 | 3.2 | 4.8 | 0.00 | 0.00 | 0.00 | 63 | 1018.3 |
| 20260504025402 | 14 | 230 | 0.0 | 4.8 | 0.00 | 0.00 | 0.00 | 63 | 1018.3 |
| 20260504025103 | 14 | 264 | 3.2 | 6.4 | 0.00 | 0.00 | 0.00 | 63 | 1018.3 |
| 20260504025005 | 14 | 248 | 3.2 | 6.4 | 0.00 | 0.00 | 0.00 | 63 | 1018.3 |
| 20260504024901 | 14 | 242 | 3.2 | 6.4 | 0.00 | 0.00 | 0.00 | 63 | 1018.4 |
| 20260504024801 | 14 | 245 | 3.2 | 6.4 | 0.00 | 0.00 | 0.00 | 63 | 1018.4 |
| 20260504024702 | 14 | 237 | 3.2 | 6.4 | 0.00 | 0.00 | 0.00 | 62 | 1018.4 |
| 20260504024505 | 14 | 272 | 3.2 | 6.4 | 0.00 | 0.00 | 0.00 | 63 | 1018.3 |
| 20260504024402 | 15 | 250 | 4.8 | 6.4 | 0.00 | 0.00 | 0.00 | 63 | 1018.3 |
| 20260504024301 | 14 | 258 | 6.4 | 6.4 | 0.00 | 0.00 | 0.00 | 63 | 1018.3 |
| 20260504024201 | 14 | 252 | 4.8 | 6.4 | 0.00 | 0.00 | 0.00 | 63 | 1018.3 |
| 20260504024101 | 15 | 251 | 3.2 | 6.4 | 0.00 | 0.00 | 0.00 | 62 | 1018.3 |
| 20260504024006 | 15 | 250 | 4.8 | 4.8 | 0.00 | 0.00 | 0.00 | 62 | 1018.3 |
| 20260504023902 | 15 | 245 | 3.2 | 4.8 | 0.00 | 0.00 | 0.00 | 61 | 1018.2 |
| 20260504023802 | 15 | 239 | 0.0 | 4.8 | 0.00 | 0.00 | 0.00 | 61 | 1018.3 |
| 20260504023505 | 15 | 226 | 1.6 | 4.8 | 0.00 | 0.00 | 0.00 | 61 | 1018.3 |
| 20260504023401 | 15 | 220 | 3.2 | 4.8 | 0.00 | 0.00 | 0.00 | 61 | 1018.2 |
| 20260504023302 | 15 | 224 | 0.0 | 4.8 | 0.00 | 0.00 | 0.00 | 61 | 1018.2 |
| 20260504023202 | 15 | 216 | 0.0 | 4.8 | 0.00 | 0.00 | 0.00 | 60 | 1018.3 |
| 20260504023102 | 15 | 221 | 3.2 | 4.8 | 0.00 | 0.00 | 0.00 | 60 | 1018.2 |
| 20260504023005 | 15 | 239 | 3.2 | 4.8 | 0.00 | 0.00 | 0.00 | 60 | 1018.2 |
| 20260504022901 | 15 | 239 | 3.2 | 4.8 | 0.00 | 0.00 | 0.00 | 60 | 1018.2 |
| 20260504022801 | 15 | 231 | 3.2 | 4.8 | 0.00 | 0.00 | 0.00 | 59 | 1018.3 |
| 20260504022701 | 15 | 225 | 3.2 | 4.8 | 0.00 | 0.00 | 0.00 | 60 | 1018.2 |
| 20260504022505 | 15 | 253 | 3.2 | 4.8 | 0.00 | 0.00 | 0.00 | 60 | 1018.3 |
| 20260504022402 | 15 | 248 | 1.6 | 4.8 | 0.00 | 0.00 | 0.00 | 60 | 1018.2 |
| 20260504022301 | 15 | 243 | 0.0 | 4.8 | 0.00 | 0.00 | 0.00 | 60 | 1018.3 |
| 20260504022201 | 15 | 242 | 3.2 | 4.8 | 0.00 | 0.00 | 0.00 | 60 | 1018.3 |
| 20260504022101 | 15 | 246 | 4.8 | 4.8 | 0.00 | 0.00 | 0.00 | 60 | 1018.2 |
| 20260504022005 | 15 | 249 | 4.8 | 4.8 | 0.00 | 0.00 | 0.00 | 59 | 1018.2 |
| 20260504021903 | 15 | 240 | 3.2 | 4.8 | 0.00 | 0.00 | 0.00 | 59 | 1018.2 |
| 20260504021801 | 15 | 242 | 3.2 | 4.8 | 0.00 | 0.00 | 0.00 | 59 | 1018.2 |
| 20260504021701 | 15 | 238 | 3.2 | 4.8 | 0.00 | 0.00 | 0.00 | 59 | 1018.2 |
| 20260504021601 | 15 | 248 | 3.2 | 4.8 | 0.00 | 0.00 | 0.00 | 60 | 1018.2 |
| 20260504021505 | 15 | 239 | 3.2 | 4.8 | 0.00 | 0.00 | 0.00 | 60 | 1018.2 |
| 20260504021402 | 15 | 242 | 3.2 | 4.8 | 0.00 | 0.00 | 0.00 | 60 | 1018.2 |
| 20260504021301 | 15 | 242 | 4.8 | 4.8 | 0.00 | 0.00 | 0.00 | 60 | 1018.2 |
| 20260504021201 | 15 | 250 | 4.8 | 4.8 | 0.00 | 0.00 | 0.00 | 59 | 1018.2 |
| 20260504021101 | 15 | 248 | 3.2 | 6.4 | 0.00 | 0.00 | 0.00 | 59 | 1018.1 |
| 20260504021005 | 15 | 242 | 1.6 | 6.4 | 0.00 | 0.00 | 0.00 | 59 | 1018.1 |
| 20260504020901 | 15 | 239 | 3.2 | 6.4 | 0.00 | 0.00 | 0.00 | 59 | 1018.1 |
| 20260504020801 | 15 | 231 | 1.6 | 6.4 | 0.00 | 0.00 | 0.00 | 59 | 1018.1 |
| 20260504020702 | 15 | 236 | 3.2 | 6.4 | 0.00 | 0.00 | 0.00 | 59 | 1018.1 |
| 20260504020602 | 15 | 234 | 3.2 | 6.4 | 0.00 | 0.00 | 0.00 | 59 | 1018.1 |
| 20260504020505 | 15 | 242 | 3.2 | 6.4 | 0.00 | 0.00 | 0.00 | 59 | 1018.2 |
| 20260504020401 | 15 | 255 | 4.8 | 6.4 | 0.00 | 0.00 | 0.00 | 58 | 1018.1 |
| 20260504020301 | 16 | 253 | 4.8 | 6.4 | 0.00 | 0.00 | 0.00 | 57 | 1018.2 |
| 20260504020201 | 16 | 264 | 4.8 | 6.4 | 0.00 | 0.00 | 0.00 | 57 | 1018.1 |
| 20260504020005 | 16 | 249 | 4.8 | 6.4 | 0.00 | 0.00 | 0.00 | 56 | 1018.1 |
| 20260504015902 | 16 | 242 | 4.8 | 6.4 | 0.00 | 0.00 | 0.00 | 56 | 1018.1 |
| 20260504015704 | 16 | 248 | 4.8 | 4.8 | 0.00 | 0.00 | 0.00 | 55 | 1018.0 |
| 20260504015505 | 16 | 248 | 4.8 | 4.8 | 0.00 | 0.00 | 0.00 | 55 | 1017.9 |
| 20260504015304 | 16 | 246 | 4.8 | 4.8 | 0.00 | 0.00 | 0.00 | 53 | 1017.9 |
| 20260504015202 | 16 | 251 | 4.8 | 4.8 | 0.00 | 0.00 | 0.00 | 54 | 1017.9 |
| 20260504015103 | 16 | 244 | 4.8 | 4.8 | 0.00 | 0.00 | 0.00 | 54 | 1017.9 |
| 20260504015007 | 16 | 231 | 3.2 | 4.8 | 0.00 | 0.00 | 0.00 | 55 | 1017.9 |
| 20260504014903 | 16 | 250 | 3.2 | 4.8 | 0.00 | 0.00 | 0.00 | 55 | 1017.8 |
| 20260504014802 | 16 | 246 | 3.2 | 4.8 | 0.00 | 0.00 | 0.00 | 54 | 1017.8 |
| 20260504014703 | 16 | 265 | 3.2 | 4.8 | 0.00 | 0.00 | 0.00 | 53 | 1017.9 |
| 20260504014602 | 16 | 234 | 3.2 | 4.8 | 0.00 | 0.00 | 0.00 | 53 | 1017.8 |
| 20260504014506 | 16 | 253 | 1.6 | 4.8 | 0.00 | 0.00 | 0.00 | 53 | 1017.8 |
| 20260504014302 | 16 | 243 | 3.2 | 4.8 | 0.00 | 0.00 | 0.00 | 52 | 1017.8 |
| 20260504014202 | 16 | 242 | 3.2 | 4.8 | 0.00 | 0.00 | 0.00 | 52 | 1017.8 |
| 20260504014102 | 16 | 257 | 3.2 | 4.8 | 0.00 | 0.00 | 0.00 | 52 | 1017.8 |
| 20260504014011 | 16 | 248 | 3.2 | 4.8 | 0.00 | 0.00 | 0.00 | 52 | 1017.8 |
| 20260504013703 | 16 | 251 | 3.2 | 4.8 | 0.00 | 0.00 | 0.00 | 52 | 1017.7 |
| 20260504013603 | 16 | 230 | 1.6 | 6.4 | 0.00 | 0.00 | 0.00 | 52 | 1017.7 |
| 20260504013505 | 16 | 228 | 3.2 | 6.4 | 0.00 | 0.00 | 0.00 | 53 | 1017.7 |
| 20260504013202 | 16 | 243 | 0.0 | 6.4 | 0.00 | 0.00 | 0.00 | 51 | 1017.6 |
| 20260504013104 | 16 | 244 | 3.2 | 6.4 | 0.00 | 0.00 | 0.00 | 51 | 1017.6 |
| 20260504012903 | 16 | 249 | 3.2 | 6.4 | 0.00 | 0.00 | 0.00 | 51 | 1017.6 |
| 20260504012802 | 16 | 248 | 3.2 | 6.4 | 0.00 | 0.00 | 0.00 | 52 | 1017.6 |
| 20260504012703 | 16 | 257 | 4.8 | 4.8 | 0.00 | 0.00 | 0.00 | 52 | 1017.6 |
| 20260504012603 | 16 | 257 | 3.2 | 4.8 | 0.00 | 0.00 | 0.00 | 51 | 1017.5 |
| 20260504012506 | 16 | 251 | 4.8 | 4.8 | 0.00 | 0.00 | 0.00 | 52 | 1017.5 |
| 20260504012402 | 17 | 244 | 3.2 | 4.8 | 0.00 | 0.00 | 0.00 | 50 | 1017.5 |
| 20260504012203 | 17 | 234 | 3.2 | 4.8 | 0.00 | 0.00 | 0.00 | 49 | 1017.4 |
| 20260504012104 | 17 | 240 | 4.8 | 4.8 | 0.00 | 0.00 | 0.00 | 48 | 1017.4 |
| 20260504011804 | 17 | 232 | 3.2 | 4.8 | 0.00 | 0.00 | 0.00 | 49 | 1017.4 |
| 20260504011702 | 17 | 238 | 3.2 | 4.8 | 0.00 | 0.00 | 0.00 | 48 | 1017.4 |
| 20260504011603 | 17 | 243 | 3.2 | 4.8 | 0.00 | 0.00 | 0.00 | 47 | 1017.4 |
| 20260504011402 | 17 | 230 | 3.2 | 4.8 | 0.00 | 0.00 | 0.00 | 47 | 1017.3 |
| 20260504011302 | 17 | 228 | 3.2 | 4.8 | 0.00 | 0.00 | 0.00 | 47 | 1017.3 |
| 20260504011202 | 17 | 222 | 3.2 | 4.8 | 0.00 | 0.00 | 0.00 | 48 | 1017.3 |
| 20260504011006 | 17 | 244 | 3.2 | 4.8 | 0.00 | 0.00 | 0.00 | 48 | 1017.3 |
| 20260504010902 | 17 | 246 | 4.8 | 4.8 | 0.00 | 0.00 | 0.00 | 47 | 1017.1 |
| 20260504010802 | 17 | 244 | 3.2 | 4.8 | 0.00 | 0.00 | 0.00 | 47 | 1017.3 |
| 20260504010702 | 17 | 245 | 3.2 | 4.8 | 0.00 | 0.00 | 0.00 | 47 | 1017.2 |
| 20260504010505 | 17 | 230 | 3.2 | 4.8 | 0.00 | 0.00 | 0.00 | 46 | 1017.2 |
| 20260504010402 | 17 | 230 | 3.2 | 4.8 | 0.00 | 0.00 | 0.00 | 45 | 1017.3 |
| 20260504010302 | 17 | 243 | 3.2 | 4.8 | 0.00 | 0.00 | 0.00 | 45 | 1017.3 |
| 20260504010201 | 17 | 240 | 3.2 | 4.8 | 0.00 | 0.00 | 0.00 | 45 | 1017.2 |
| 20260504010007 | 17 | 215 | 1.6 | 4.8 | 0.00 | 0.00 | 0.00 | 45 | 1017.2 |
| 20260504005903 | 17 | 220 | 3.2 | 4.8 | 0.00 | 0.00 | 0.00 | 45 | 1017.2 |
| 20260504005804 | 17 | 237 | 1.6 | 4.8 | 0.00 | 0.00 | 0.00 | 46 | 1017.2 |
| 20260504005702 | 18 | 241 | 3.2 | 3.2 | 0.00 | 0.00 | 0.00 | 47 | 1017.2 |
| 20260504005603 | 18 | 229 | 3.2 | 3.2 | 0.00 | 0.00 | 0.00 | 46 | 1017.2 |
| 20260504005304 | 18 | 226 | 1.6 | 4.8 | 0.00 | 0.00 | 0.00 | 45 | 1017.1 |
| 20260504005203 | 18 | 220 | 3.2 | 4.8 | 0.00 | 0.00 | 0.00 | 45 | 1017.1 |
| 20260504005005 | 18 | 224 | 1.6 | 4.8 | 0.00 | 0.00 | 0.00 | 44 | 1017.1 |
| 20260504004703 | 18 | 217 | 0.0 | 4.8 | 0.00 | 0.00 | 0.00 | 44 | 1017.1 |
| 20260504004603 | 18 | 222 | 3.2 | 3.2 | 0.00 | 0.00 | 0.00 | 44 | 1017.1 |
| 20260504004506 | 18 | 221 | 1.6 | 3.2 | 0.00 | 0.00 | 0.00 | 44 | 1017.1 |
| 20260504004402 | 18 | 217 | 0.0 | 3.2 | 0.00 | 0.00 | 0.00 | 44 | 1017.0 |
| 20260504004303 | 18 | 195 | 0.0 | 3.2 | 0.00 | 0.00 | 0.00 | 43 | 1017.0 |
| 20260504004103 | 18 | 223 | 1.6 | 3.2 | 0.00 | 0.00 | 0.00 | 44 | 1017.0 |
| 20260504003903 | 18 | 221 | 0.0 | 3.2 | 0.00 | 0.00 | 0.00 | 44 | 1017.1 |
| 20260504003802 | 18 | 207 | 0.0 | 3.2 | 0.00 | 0.00 | 0.00 | 44 | 1017.0 |
| 20260504003702 | 18 | 195 | 1.6 | 3.2 | 0.00 | 0.00 | 0.00 | 44 | 1017.1 |
| 20260504003603 | 18 | 214 | 3.2 | 3.2 | 0.00 | 0.00 | 0.00 | 43 | 1017.0 |
| 20260504003303 | 19 | 202 | 0.0 | 3.2 | 0.00 | 0.00 | 0.00 | 42 | 1016.9 |
| 20260504003202 | 19 | 219 | 1.6 | 3.2 | 0.00 | 0.00 | 0.00 | 42 | 1016.9 |
| 20260504003103 | 19 | 218 | 0.0 | 3.2 | 0.00 | 0.00 | 0.00 | 42 | 1016.9 |
| 20260504003006 | 19 | 227 | 0.0 | 3.2 | 0.00 | 0.00 | 0.00 | 42 | 1016.9 |
| 20260504002902 | 19 | 227 | 0.0 | 3.2 | 0.00 | 0.00 | 0.00 | 42 | 1016.9 |
| 20260504002802 | 19 | 232 | 0.0 | 3.2 | 0.00 | 0.00 | 0.00 | 42 | 1016.9 |
| 20260504002702 | 19 | 231 | 0.0 | 3.2 | 0.00 | 0.00 | 0.00 | 41 | 1017.0 |
| 20260504002603 | 19 | 231 | 1.6 | 3.2 | 0.00 | 0.00 | 0.00 | 41 | 1016.9 |
| 20260504002303 | 20 | 236 | 0.0 | 3.2 | 0.00 | 0.00 | 0.00 | 40 | 1016.8 |
| 20260504002202 | 20 | 241 | 0.0 | 3.2 | 0.00 | 0.00 | 0.00 | 39 | 1016.9 |
| 20260504001904 | 20 | 229 | 0.0 | 3.2 | 0.00 | 0.00 | 0.00 | 41 | 1016.9 |
| 20260504001803 | 20 | 229 | 0.0 | 3.2 | 0.00 | 0.00 | 0.00 | 40 | 1016.9 |
| 20260504001703 | 20 | 229 | 0.0 | 3.2 | 0.00 | 0.00 | 0.00 | 39 | 1016.8 |
| 20260504001506 | 20 | 230 | 0.0 | 3.2 | 0.00 | 0.00 | 0.00 | 40 | 1016.8 |
| 20260504001302 | 20 | 231 | 0.0 | 3.2 | 0.00 | 0.00 | 0.00 | 40 | 1016.8 |
| 20260504001102 | 20 | 213 | 0.0 | 1.6 | 0.00 | 0.00 | 0.00 | 40 | 1016.7 |
| 20260504001005 | 20 | 213 | 0.0 | 1.6 | 0.00 | 0.00 | 0.00 | 39 | 1016.7 |
| 20260504000904 | 20 | 238 | 0.0 | 1.6 | 0.00 | 0.00 | 0.00 | 39 | 1016.7 |
| 20260504000802 | 20 | 244 | 0.0 | 1.6 | 0.00 | 0.00 | 0.00 | 39 | 1016.7 |
| 20260504000703 | 20 | 244 | 0.0 | 1.6 | 0.00 | 0.00 | 0.00 | 38 | 1016.8 |
| 20260504000603 | 20 | 244 | 0.0 | 1.6 | 0.00 | 0.00 | 0.00 | 39 | 1016.7 |
| 20260504000505 | 20 | 244 | 0.0 | 1.6 | 0.00 | 0.00 | 0.00 | 41 | 1016.7 |
| 20260504000403 | 20 | 244 | 0.0 | 1.6 | 0.00 | 0.00 | 0.00 | 40 | 1016.7 |
| 20260504000204 | 21 | 282 | 0.0 | 3.2 | 0.00 | 0.00 | 0.00 | 39 | 1016.7 |
| 20260503235901 | 21 | 282 | 0.0 | 3.2 | 0.00 | 0.00 | 0.00 | 39 | 1016.6 |
| 20260503235802 | 21 | 282 | 0.0 | 3.2 | 0.00 | 0.00 | 0.00 | 38 | 1016.6 |
| 20260503235701 | 21 | 229 | 0.0 | 4.8 | 0.00 | 0.00 | 0.00 | 37 | 1016.6 |
| 20260503235601 | 21 | 333 | 0.0 | 4.8 | 0.00 | 0.00 | 0.00 | 36 | 1016.6 |
| 20260503235504 | 21 | 333 | 0.0 | 4.8 | 0.00 | 0.00 | 0.00 | 36 | 1016.6 |
| 20260503235401 | 21 | 335 | 0.0 | 4.8 | 0.00 | 0.00 | 0.00 | 37 | 1016.6 |
| 20260503235302 | 21 | 335 | 0.0 | 4.8 | 0.00 | 0.00 | 0.00 | 37 | 1016.6 |
| 20260503235202 | 21 | 333 | 0.0 | 4.8 | 0.00 | 0.00 | 0.00 | 37 | 1016.6 |
| 20260503235101 | 21 | 286 | 0.0 | 4.8 | 0.00 | 0.00 | 0.00 | 36 | 1016.6 |
| 20260503235005 | 21 | 286 | 0.0 | 4.8 | 0.00 | 0.00 | 0.00 | 36 | 1016.6 |
| 20260503234901 | 21 | 309 | 0.0 | 4.8 | 0.00 | 0.00 | 0.00 | 37 | 1016.6 |
| 20260503234802 | 21 | 349 | 3.2 | 4.8 | 0.00 | 0.00 | 0.00 | 37 | 1016.6 |
| 20260503234702 | 21 | 321 | 0.0 | 4.8 | 0.00 | 0.00 | 0.00 | 36 | 1016.6 |
| 20260503234601 | 21 | 264 | 0.0 | 4.8 | 0.00 | 0.00 | 0.00 | 36 | 1016.5 |
| 20260503234505 | 21 | 316 | 3.2 | 4.8 | 0.00 | 0.00 | 0.00 | 37 | 1016.6 |
| 20260503234400 | 21 | 323 | 3.2 | 4.8 | 0.00 | 0.00 | 0.00 | 37 | 1016.5 |
| 20260503234301 | 21 | 316 | 3.2 | 4.8 | 0.00 | 0.00 | 0.00 | 35 | 1016.6 |
| 20260503234201 | 21 | 316 | 0.0 | 4.8 | 0.00 | 0.00 | 0.00 | 36 | 1016.6 |
| 20260503234101 | 21 | 340 | 0.0 | 4.8 | 0.00 | 0.00 | 0.00 | 36 | 1016.6 |
| 20260503233901 | 21 | 340 | 0.0 | 4.8 | 0.00 | 0.00 | 0.00 | 35 | 1016.5 |
| 20260503233802 | 21 | 340 | 0.0 | 4.8 | 0.00 | 0.00 | 0.00 | 34 | 1016.6 |
| 20260503233504 | 21 | 304 | 0.0 | 6.4 | 0.00 | 0.00 | 0.00 | 35 | 1016.5 |
| 20260503233401 | 21 | 295 | 3.2 | 6.4 | 0.00 | 0.00 | 0.00 | 35 | 1016.5 |
| 20260503233006 | 22 | 13 | 3.2 | 6.4 | 0.00 | 0.00 | 0.00 | 34 | 1016.5 |
| 20260503232901 | 22 | 326 | 1.6 | 8.0 | 0.00 | 0.00 | 0.00 | 34 | 1016.5 |
| 20260503232801 | 22 | 295 | 3.2 | 8.0 | 0.00 | 0.00 | 0.00 | 34 | 1016.5 |
| 20260503232701 | 22 | 304 | 3.2 | 8.0 | 0.00 | 0.00 | 0.00 | 33 | 1016.5 |
| 20260503232602 | 22 | 345 | 3.2 | 8.0 | 0.00 | 0.00 | 0.00 | 34 | 1016.5 |
| 20260503232400 | 22 | 302 | 3.2 | 8.0 | 0.00 | 0.00 | 0.00 | 35 | 1016.5 |
| 20260503232301 | 22 | 321 | 1.6 | 8.0 | 0.00 | 0.00 | 0.00 | 34 | 1016.5 |
| 20260503232101 | 22 | 360 | 0.0 | 8.0 | 0.00 | 0.00 | 0.00 | 33 | 1016.5 |
| 20260503232005 | 22 | 358 | 3.2 | 4.8 | 0.00 | 0.00 | 0.00 | 33 | 1016.5 |
| 20260503231901 | 22 | 358 | 4.8 | 4.8 | 0.00 | 0.00 | 0.00 | 33 | 1016.5 |
| 20260503231804 | 22 | 23 | 4.8 | 4.8 | 0.00 | 0.00 | 0.00 | 34 | 1016.5 |
| 20260503231701 | 22 | 151 | 0.0 | 4.8 | 0.00 | 0.00 | 0.00 | 34 | 1016.6 |
| 20260503231505 | 22 | 305 | 0.0 | 4.8 | 0.00 | 0.00 | 0.00 | 33 | 1016.5 |
| 20260503231402 | 22 | 319 | 0.0 | 4.8 | 0.00 | 0.00 | 0.00 | 33 | 1016.6 |
| 20260503231301 | 22 | 317 | 3.2 | 6.4 | 0.00 | 0.00 | 0.00 | 33 | 1016.5 |
| 20260503231101 | 22 | 319 | 0.0 | 6.4 | 0.00 | 0.00 | 0.00 | 32 | 1016.6 |
| 20260503230901 | 22 | 323 | 0.0 | 8.0 | 0.00 | 0.00 | 0.00 | 33 | 1016.6 |
| 20260503230801 | 22 | 310 | 4.8 | 8.0 | 0.00 | 0.00 | 0.00 | 34 | 1016.6 |
| 20260503230701 | 22 | 303 | 1.6 | 8.0 | 0.00 | 0.00 | 0.00 | 32 | 1016.7 |
| 20260503230600 | 22 | 302 | 3.2 | 8.0 | 0.00 | 0.00 | 0.00 | 33 | 1016.7 |
| 20260503230505 | 22 | 284 | 3.2 | 8.0 | 0.00 | 0.00 | 0.00 | 32 | 1016.7 |
| 20260503230401 | 22 | 309 | 3.2 | 8.0 | 0.00 | 0.00 | 0.00 | 33 | 1016.7 |
| 20260503230301 | 22 | 326 | 3.2 | 8.0 | 0.00 | 0.00 | 0.00 | 33 | 1016.7 |
| 20260503230201 | 22 | 328 | 6.4 | 8.0 | 0.00 | 0.00 | 0.00 | 32 | 1016.7 |
| 20260503230007 | 22 | 20 | 4.8 | 8.0 | 0.00 | 0.00 | 0.00 | 32 | 1016.5 |
| 20260503225901 | 22 | 353 | 3.2 | 8.0 | 0.00 | 0.00 | 0.00 | 33 | 1016.6 |
| 20260503225802 | 22 | 360 | 4.8 | 8.0 | 0.00 | 0.00 | 0.00 | 33 | 1016.6 |
| 20260503225701 | 22 | 342 | 3.2 | 11.3 | 0.00 | 0.00 | 0.00 | 34 | 1016.6 |
| 20260503225601 | 22 | 17 | 6.4 | 11.3 | 0.00 | 0.00 | 0.00 | 34 | 1016.6 |
| 20260503225504 | 22 | 360 | 4.8 | 11.3 | 0.00 | 0.00 | 0.00 | 33 | 1016.7 |
| 20260503225402 | 22 | 20 | 4.8 | 11.3 | 0.00 | 0.00 | 0.00 | 33 | 1016.7 |
| 20260503225301 | 22 | 283 | 0.0 | 11.3 | 0.00 | 0.00 | 0.00 | 33 | 1016.7 |
| 20260503225201 | 22 | 310 | 4.8 | 11.3 | 0.00 | 0.00 | 0.00 | 33 | 1016.7 |
| 20260503225102 | 22 | 307 | 4.8 | 11.3 | 0.00 | 0.00 | 0.00 | 34 | 1016.7 |
| 20260503225005 | 22 | 309 | 1.6 | 11.3 | 0.00 | 0.00 | 0.00 | 32 | 1016.7 |
| 20260503224901 | 22 | 317 | 3.2 | 11.3 | 0.00 | 0.00 | 0.00 | 32 | 1016.7 |
| 20260503224802 | 22 | 5 | 8.0 | 11.3 | 0.00 | 0.00 | 0.00 | 32 | 1016.7 |
| 20260503224701 | 22 | 345 | 6.4 | 6.4 | 0.00 | 0.00 | 0.00 | 34 | 1016.7 |
| 20260503224602 | 22 | 360 | 0.0 | 6.4 | 0.00 | 0.00 | 0.00 | 33 | 1016.7 |
| 20260503224505 | 22 | 18 | 6.4 | 6.4 | 0.00 | 0.00 | 0.00 | 32 | 1016.7 |
| 20260503224401 | 22 | 303 | 0.0 | 8.0 | 0.00 | 0.00 | 0.00 | 32 | 1016.7 |
| 20260503224301 | 22 | 316 | 4.8 | 8.0 | 0.00 | 0.00 | 0.00 | 32 | 1016.8 |
| 20260503224201 | 22 | 323 | 4.8 | 8.0 | 0.00 | 0.00 | 0.00 | 32 | 1016.6 |
| 20260503224102 | 22 | 323 | 3.2 | 8.0 | 0.00 | 0.00 | 0.00 | 31 | 1016.6 |
| 20260503224006 | 22 | 314 | 0.0 | 8.0 | 0.00 | 0.00 | 0.00 | 31 | 1016.6 |
| 20260503223901 | 22 | 326 | 4.8 | 8.0 | 0.00 | 0.00 | 0.00 | 31 | 1016.7 |
| 20260503223802 | 22 | 330 | 6.4 | 8.0 | 0.00 | 0.00 | 0.00 | 32 | 1016.7 |
| 20260503223701 | 22 | 309 | 3.2 | 8.0 | 0.00 | 0.00 | 0.00 | 31 | 1016.7 |
| 20260503223601 | 22 | 312 | 3.2 | 8.0 | 0.00 | 0.00 | 0.00 | 32 | 1016.7 |
| 20260503223505 | 22 | 309 | 4.8 | 8.0 | 0.00 | 0.00 | 0.00 | 32 | 1016.7 |
| 20260503223401 | 23 | 328 | 6.4 | 8.0 | 0.00 | 0.00 | 0.00 | 31 | 1016.8 |
| 20260503223301 | 23 | 333 | 1.6 | 8.0 | 0.00 | 0.00 | 0.00 | 32 | 1016.7 |
| 20260503223006 | 22 | 274 | 4.8 | 11.3 | 0.00 | 0.00 | 0.00 | 32 | 1016.8 |
| 20260503222800 | 22 | 329 | 3.2 | 11.3 | 0.00 | 0.00 | 0.00 | 32 | 1016.7 |
| 20260503222702 | 22 | 349 | 4.8 | 11.3 | 0.00 | 0.00 | 0.00 | 32 | 1016.7 |
| 20260503222505 | 22 | 337 | 4.8 | 11.3 | 0.00 | 0.00 | 0.00 | 31 | 1016.7 |
| 20260503222401 | 22 | 296 | 4.8 | 11.3 | 0.00 | 0.00 | 0.00 | 31 | 1016.7 |
| 20260503222301 | 23 | 345 | 3.2 | 11.3 | 0.00 | 0.00 | 0.00 | 30 | 1016.7 |
| 20260503222200 | 23 | 324 | 3.2 | 11.3 | 0.00 | 0.00 | 0.00 | 32 | 1016.6 |
| 20260503222101 | 23 | 324 | 6.4 | 11.3 | 0.00 | 0.00 | 0.00 | 31 | 1016.6 |
| 20260503222006 | 23 | 356 | 4.8 | 11.3 | 0.00 | 0.00 | 0.00 | 31 | 1016.6 |
| 20260503221901 | 23 | 293 | 0.0 | 11.3 | 0.00 | 0.00 | 0.00 | 31 | 1016.6 |
| 20260503221801 | 23 | 293 | 4.8 | 11.3 | 0.00 | 0.00 | 0.00 | 32 | 1016.7 |
| 20260503221702 | 23 | 304 | 1.6 | 11.3 | 0.00 | 0.00 | 0.00 | 32 | 1016.6 |
| 20260503221602 | 23 | 310 | 4.8 | 11.3 | 0.00 | 0.00 | 0.00 | 32 | 1016.6 |
| 20260503221401 | 23 | 342 | 11.3 | 11.3 | 0.00 | 0.00 | 0.00 | 32 | 1016.7 |
| 20260503221301 | 23 | 358 | 4.8 | 11.3 | 0.00 | 0.00 | 0.00 | 32 | 1016.7 |
| 20260503221201 | 23 | 305 | 4.8 | 11.3 | 0.00 | 0.00 | 0.00 | 32 | 1016.7 |
| 20260503221102 | 23 | 307 | 3.2 | 11.3 | 0.00 | 0.00 | 0.00 | 32 | 1016.6 |
| 20260503221005 | 23 | 302 | 4.8 | 11.3 | 0.00 | 0.00 | 0.00 | 32 | 1016.6 |
| 20260503220901 | 23 | 297 | 8.0 | 11.3 | 0.00 | 0.00 | 0.00 | 32 | 1016.7 |
| 20260503220801 | 23 | 294 | 6.4 | 11.3 | 0.00 | 0.00 | 0.00 | 32 | 1016.6 |
| 20260503220701 | 23 | 271 | 9.7 | 11.3 | 0.00 | 0.00 | 0.00 | 32 | 1016.6 |
| 20260503220601 | 23 | 314 | 4.8 | 9.7 | 0.00 | 0.00 | 0.00 | 31 | 1016.7 |
| 20260503220505 | 23 | 342 | 4.8 | 9.7 | 0.00 | 0.00 | 0.00 | 31 | 1016.7 |
| 20260503220401 | 23 | 315 | 3.2 | 9.7 | 0.00 | 0.00 | 0.00 | 32 | 1016.6 |
| 20260503220301 | 23 | 221 | 0.0 | 9.7 | 0.00 | 0.00 | 0.00 | 33 | 1016.8 |
| 20260503220007 | 23 | 309 | 4.8 | 11.3 | 0.00 | 0.00 | 0.00 | 32 | 1016.8 |
| 20260503215802 | 23 | 300 | 6.4 | 11.3 | 0.00 | 0.00 | 0.00 | 32 | 1016.7 |
| 20260503215702 | 23 | 287 | 6.4 | 11.3 | 0.00 | 0.00 | 0.00 | 32 | 1016.8 |
| 20260503215603 | 23 | 285 | 8.0 | 11.3 | 0.00 | 0.00 | 0.00 | 31 | 1016.8 |
| 20260503215402 | 23 | 275 | 8.0 | 11.3 | 0.00 | 0.00 | 0.00 | 31 | 1016.8 |
| 20260503215304 | 23 | 255 | 9.7 | 9.7 | 0.00 | 0.00 | 0.00 | 33 | 1016.8 |
| 20260503215203 | 23 | 263 | 4.8 | 9.7 | 0.00 | 0.00 | 0.00 | 33 | 1016.8 |
| 20260503215104 | 23 | 281 | 4.8 | 9.7 | 0.00 | 0.00 | 0.00 | 33 | 1016.8 |
| 20260503215006 | 23 | 302 | 6.4 | 9.7 | 0.00 | 0.00 | 0.00 | 34 | 1016.9 |
| 20260503214902 | 23 | 267 | 6.4 | 9.7 | 0.00 | 0.00 | 0.00 | 35 | 1016.8 |
| 20260503214803 | 23 | 312 | 3.2 | 9.7 | 0.00 | 0.00 | 0.00 | 34 | 1016.8 |
| 20260503214701 | 23 | 287 | 6.4 | 9.7 | 0.00 | 0.00 | 0.00 | 33 | 1016.9 |
| 20260503214602 | 23 | 295 | 6.4 | 9.7 | 0.00 | 0.00 | 0.00 | 34 | 1016.8 |
| 20260503214506 | 23 | 267 | 4.8 | 9.7 | 0.00 | 0.00 | 0.00 | 33 | 1016.8 |
| 20260503214402 | 23 | 272 | 6.4 | 9.7 | 0.00 | 0.00 | 0.00 | 34 | 1016.8 |
| 20260503214303 | 23 | 284 | 6.4 | 9.7 | 0.00 | 0.00 | 0.00 | 32 | 1016.9 |
| 20260503214202 | 23 | 312 | 4.8 | 9.7 | 0.00 | 0.00 | 0.00 | 33 | 1016.9 |
| 20260503214102 | 23 | 338 | 4.8 | 9.7 | 0.00 | 0.00 | 0.00 | 33 | 1016.9 |
| 20260503214006 | 23 | 315 | 4.8 | 9.7 | 0.00 | 0.00 | 0.00 | 34 | 1016.9 |
| 20260503213903 | 23 | 265 | 6.4 | 9.7 | 0.00 | 0.00 | 0.00 | 33 | 1016.9 |
| 20260503213505 | 23 | 286 | 6.4 | 9.7 | 0.00 | 0.00 | 0.00 | 33 | 1016.9 |
| 20260503213402 | 23 | 295 | 0.0 | 9.7 | 0.00 | 0.00 | 0.00 | 32 | 1016.9 |
| 20260503213302 | 23 | 305 | 6.4 | 9.7 | 0.00 | 0.00 | 0.00 | 32 | 1016.9 |
| 20260503213202 | 23 | 297 | 4.8 | 9.7 | 0.00 | 0.00 | 0.00 | 33 | 1016.8 |
| 20260503213007 | 23 | 301 | 3.2 | 9.7 | 0.00 | 0.00 | 0.00 | 33 | 1016.9 |
| 20260503212902 | 23 | 288 | 4.8 | 9.7 | 0.00 | 0.00 | 0.00 | 34 | 1016.9 |
| 20260503212802 | 23 | 338 | 4.8 | 9.7 | 0.00 | 0.00 | 0.00 | 34 | 1016.9 |
| 20260503212703 | 23 | 290 | 4.8 | 9.7 | 0.00 | 0.00 | 0.00 | 34 | 1016.9 |
| 20260503212602 | 23 | 292 | 4.8 | 9.7 | 0.00 | 0.00 | 0.00 | 33 | 1016.9 |
| 20260503212506 | 23 | 301 | 6.4 | 9.7 | 0.00 | 0.00 | 0.00 | 34 | 1016.9 |
| 20260503212402 | 23 | 284 | 6.4 | 9.7 | 0.00 | 0.00 | 0.00 | 35 | 1016.9 |
| 20260503212102 | 23 | 349 | 8.0 | 11.3 | 0.00 | 0.00 | 0.00 | 33 | 1016.9 |
| 20260503212006 | 23 | 310 | 4.8 | 11.3 | 0.00 | 0.00 | 0.00 | 33 | 1016.9 |
| 20260503211903 | 23 | 338 | 3.2 | 11.3 | 0.00 | 0.00 | 0.00 | 34 | 1017.0 |
| 20260503211803 | 23 | 319 | 3.2 | 11.3 | 0.00 | 0.00 | 0.00 | 34 | 1016.9 |
| 20260503211703 | 23 | 283 | 4.8 | 11.3 | 0.00 | 0.00 | 0.00 | 34 | 1017.0 |
| 20260503211603 | 23 | 231 | 0.0 | 11.3 | 0.00 | 0.00 | 0.00 | 34 | 1017.0 |
| 20260503211506 | 23 | 269 | 8.0 | 11.3 | 0.00 | 0.00 | 0.00 | 34 | 1016.9 |
| 20260503211402 | 23 | 296 | 4.8 | 11.3 | 0.00 | 0.00 | 0.00 | 33 | 1017.0 |
| 20260503211302 | 23 | 303 | 3.2 | 11.3 | 0.00 | 0.00 | 0.00 | 34 | 1016.9 |
| 20260503211202 | 23 | 267 | 9.7 | 11.3 | 0.00 | 0.00 | 0.00 | 34 | 1017.0 |
| 20260503211005 | 23 | 282 | 6.4 | 11.3 | 0.00 | 0.00 | 0.00 | 34 | 1017.0 |
| 20260503210802 | 23 | 276 | 3.2 | 11.3 | 0.00 | 0.00 | 0.00 | 32 | 1017.0 |
| 20260503210702 | 23 | 266 | 8.0 | 11.3 | 0.00 | 0.00 | 0.00 | 33 | 1017.0 |
| 20260503210602 | 23 | 308 | 0.0 | 11.3 | 0.00 | 0.00 | 0.00 | 32 | 1017.0 |
| 20260503210505 | 23 | 5 | 4.8 | 11.3 | 0.00 | 0.00 | 0.00 | 33 | 1017.0 |
| 20260503210401 | 23 | 284 | 6.4 | 11.3 | 0.00 | 0.00 | 0.00 | 34 | 1017.0 |
| 20260503210202 | 23 | 293 | 3.2 | 11.3 | 0.00 | 0.00 | 0.00 | 34 | 1017.1 |
| 20260503210104 | 23 | 333 | 8.0 | 11.3 | 0.00 | 0.00 | 0.00 | 34 | 1017.1 |
| 20260503210007 | 23 | 277 | 8.0 | 11.3 | 0.00 | 0.00 | 0.00 | 34 | 1017.2 |
| 20260503205801 | 23 | 359 | 1.6 | 9.7 | 0.00 | 0.00 | 0.00 | 33 | 1017.1 |
| 20260503205701 | 23 | 283 | 9.7 | 9.7 | 0.00 | 0.00 | 0.00 | 34 | 1017.1 |
| 20260503205601 | 23 | 279 | 4.8 | 9.7 | 0.00 | 0.00 | 0.00 | 32 | 1017.0 |
| 20260503205505 | 23 | 271 | 4.8 | 9.7 | 0.00 | 0.00 | 0.00 | 31 | 1017.0 |
| 20260503205401 | 23 | 331 | 3.2 | 9.7 | 0.00 | 0.00 | 0.00 | 32 | 1017.1 |
| 20260503205303 | 23 | 336 | 4.8 | 9.7 | 0.00 | 0.00 | 0.00 | 33 | 1017.2 |
| 20260503205201 | 23 | 297 | 4.8 | 9.7 | 0.00 | 0.00 | 0.00 | 32 | 1017.3 |
| 20260503205101 | 23 | 295 | 6.4 | 9.7 | 0.00 | 0.00 | 0.00 | 32 | 1017.2 |
| 20260503204901 | 23 | 330 | 6.4 | 9.7 | 0.00 | 0.00 | 0.00 | 30 | 1017.3 |
| 20260503204800 | 23 | 1 | 4.8 | 8.0 | 0.00 | 0.00 | 0.00 | 30 | 1017.3 |
| 20260503204701 | 23 | 324 | 4.8 | 8.0 | 0.00 | 0.00 | 0.00 | 32 | 1017.3 |
| 20260503204602 | 23 | 298 | 6.4 | 8.0 | 0.00 | 0.00 | 0.00 | 31 | 1017.3 |
| 20260503204505 | 23 | 315 | 1.6 | 8.0 | 0.00 | 0.00 | 0.00 | 32 | 1017.3 |
| 20260503204402 | 23 | 265 | 1.6 | 8.0 | 0.00 | 0.00 | 0.00 | 30 | 1017.3 |
| 20260503204302 | 23 | 305 | 3.2 | 8.0 | 0.00 | 0.00 | 0.00 | 30 | 1017.3 |
| 20260503204201 | 23 | 6 | 6.4 | 8.0 | 0.00 | 0.00 | 0.00 | 33 | 1017.3 |
| 20260503204101 | 23 | 314 | 6.4 | 8.0 | 0.00 | 0.00 | 0.00 | 32 | 1017.2 |
| 20260503204006 | 23 | 319 | 1.6 | 9.7 | 0.00 | 0.00 | 0.00 | 33 | 1017.2 |
| 20260503203901 | 23 | 230 | 1.6 | 9.7 | 0.00 | 0.00 | 0.00 | 32 | 1017.3 |
| 20260503203800 | 23 | 290 | 4.8 | 9.7 | 0.00 | 0.00 | 0.00 | 33 | 1017.4 |
| 20260503203601 | 23 | 291 | 0.0 | 9.7 | 0.00 | 0.00 | 0.00 | 32 | 1017.6 |
| 20260503203504 | 23 | 278 | 4.8 | 11.3 | 0.00 | 0.00 | 0.00 | 32 | 1017.6 |
| 20260503203401 | 23 | 281 | 4.8 | 11.3 | 0.00 | 0.00 | 0.00 | 33 | 1017.7 |
| 20260503203301 | 23 | 291 | 8.0 | 11.3 | 0.00 | 0.00 | 0.00 | 33 | 1017.7 |
| 20260503203201 | 23 | 307 | 4.8 | 11.3 | 0.00 | 0.00 | 0.00 | 32 | 1017.7 |
| 20260503203006 | 23 | 289 | 4.8 | 11.3 | 0.00 | 0.00 | 0.00 | 32 | 1017.7 |
| 20260503202902 | 23 | 296 | 4.8 | 11.3 | 0.00 | 0.00 | 0.00 | 32 | 1017.7 |
| 20260503202701 | 23 | 294 | 6.4 | 11.3 | 0.00 | 0.00 | 0.00 | 33 | 1017.7 |
| 20260503202601 | 23 | 288 | 4.8 | 11.3 | 0.00 | 0.00 | 0.00 | 32 | 1017.7 |
| 20260503202504 | 23 | 300 | 1.6 | 9.7 | 0.00 | 0.00 | 0.00 | 33 | 1017.8 |
| 20260503202401 | 23 | 294 | 4.8 | 9.7 | 0.00 | 0.00 | 0.00 | 33 | 1017.7 |
| 20260503202300 | 23 | 295 | 4.8 | 9.7 | 0.00 | 0.00 | 0.00 | 33 | 1017.7 |
| 20260503202200 | 23 | 295 | 1.6 | 9.7 | 0.00 | 0.00 | 0.00 | 33 | 1017.6 |
| 20260503202101 | 23 | 317 | 3.2 | 9.7 | 0.00 | 0.00 | 0.00 | 33 | 1017.7 |
| 20260503202005 | 23 | 293 | 4.8 | 12.9 | 0.00 | 0.00 | 0.00 | 33 | 1017.7 |
| 20260503201801 | 23 | 349 | 3.2 | 12.9 | 0.00 | 0.00 | 0.00 | 31 | 1017.8 |
| 20260503201701 | 23 | 336 | 3.2 | 12.9 | 0.00 | 0.00 | 0.00 | 33 | 1017.8 |
| 20260503201603 | 23 | 302 | 3.2 | 12.9 | 0.00 | 0.00 | 0.00 | 31 | 1017.9 |
| 20260503201402 | 23 | 270 | 6.4 | 12.9 | 0.00 | 0.00 | 0.00 | 33 | 1017.8 |
| 20260503201301 | 23 | 281 | 4.8 | 12.9 | 0.00 | 0.00 | 0.00 | 33 | 1017.8 |
| 20260503201201 | 24 | 269 | 8.0 | 12.9 | 0.00 | 0.00 | 0.00 | 34 | 1017.8 |
| 20260503201101 | 23 | 264 | 11.3 | 11.3 | 0.00 | 0.00 | 0.00 | 33 | 1017.8 |
| 20260503201005 | 23 | 301 | 4.8 | 9.7 | 0.00 | 0.00 | 0.00 | 33 | 1017.8 |
| 20260503200902 | 23 | 242 | 4.8 | 9.7 | 0.00 | 0.00 | 0.00 | 34 | 1017.9 |
| 20260503200800 | 23 | 278 | 3.2 | 9.7 | 0.00 | 0.00 | 0.00 | 34 | 1017.9 |
| 20260503200702 | 23 | 294 | 8.0 | 11.3 | 0.00 | 0.00 | 0.00 | 34 | 1017.8 |
| 20260503200601 | 23 | 312 | 4.8 | 11.3 | 0.00 | 0.00 | 0.00 | 33 | 1017.9 |
| 20260503200505 | 23 | 315 | 4.8 | 11.3 | 0.00 | 0.00 | 0.00 | 33 | 1017.9 |
| 20260503200401 | 23 | 225 | 3.2 | 11.3 | 0.00 | 0.00 | 0.00 | 33 | 1017.9 |
| 20260503200301 | 23 | 304 | 3.2 | 11.3 | 0.00 | 0.00 | 0.00 | 34 | 1017.9 |
| 20260503200201 | 23 | 290 | 4.8 | 11.3 | 0.00 | 0.00 | 0.00 | 33 | 1018.0 |
| 20260503200101 | 23 | 279 | 8.0 | 11.3 | 0.00 | 0.00 | 0.00 | 34 | 1018.0 |
| 20260503200006 | 23 | 293 | 4.8 | 11.3 | 0.00 | 0.00 | 0.00 | 33 | 1018.0 |
| 20260503195801 | 23 | 250 | 6.4 | 11.3 | 0.00 | 0.00 | 0.00 | 33 | 1018.0 |
| 20260503195702 | 23 | 285 | 8.0 | 11.3 | 0.00 | 0.00 | 0.00 | 33 | 1018.1 |
| 20260503195602 | 23 | 288 | 4.8 | 11.3 | 0.00 | 0.00 | 0.00 | 32 | 1018.0 |
| 20260503195505 | 23 | 279 | 4.8 | 11.3 | 0.00 | 0.00 | 0.00 | 32 | 1018.0 |
| 20260503195401 | 23 | 252 | 9.7 | 11.3 | 0.00 | 0.00 | 0.00 | 32 | 1018.1 |
| 20260503195301 | 23 | 274 | 4.8 | 11.3 | 0.00 | 0.00 | 0.00 | 33 | 1018.1 |
| 20260503195101 | 23 | 289 | 6.4 | 12.9 | 0.00 | 0.00 | 0.00 | 31 | 1018.2 |
| 20260503195006 | 23 | 264 | 8.0 | 12.9 | 0.00 | 0.00 | 0.00 | 32 | 1018.2 |
| 20260503194901 | 23 | 327 | 6.4 | 12.9 | 0.00 | 0.00 | 0.00 | 34 | 1018.2 |
| 20260503194801 | 23 | 338 | 8.0 | 12.9 | 0.00 | 0.00 | 0.00 | 32 | 1018.3 |
| 20260503194700 | 23 | 303 | 8.0 | 12.9 | 0.00 | 0.00 | 0.00 | 33 | 1018.1 |
| 20260503194601 | 23 | 280 | 8.0 | 12.9 | 0.00 | 0.00 | 0.00 | 33 | 1018.2 |
| 20260503194505 | 23 | 293 | 4.8 | 12.9 | 0.00 | 0.00 | 0.00 | 32 | 1018.3 |
| 20260503194403 | 23 | 235 | 3.2 | 12.9 | 0.00 | 0.00 | 0.00 | 33 | 1018.2 |
| 20260503194302 | 23 | 289 | 4.8 | 12.9 | 0.00 | 0.00 | 0.00 | 30 | 1018.3 |
| 20260503194201 | 23 | 261 | 8.0 | 12.9 | 0.00 | 0.00 | 0.00 | 32 | 1018.3 |
| 20260503194101 | 23 | 290 | 6.4 | 11.3 | 0.00 | 0.00 | 0.00 | 34 | 1018.4 |
| 20260503194005 | 23 | 286 | 1.6 | 11.3 | 0.00 | 0.00 | 0.00 | 31 | 1018.4 |
| 20260503193901 | 23 | 300 | 6.4 | 11.3 | 0.00 | 0.00 | 0.00 | 32 | 1018.3 |
| 20260503193801 | 23 | 280 | 6.4 | 11.3 | 0.00 | 0.00 | 0.00 | 31 | 1018.4 |
| 20260503193701 | 23 | 286 | 4.8 | 11.3 | 0.00 | 0.00 | 0.00 | 30 | 1018.4 |
| 20260503193400 | 23 | 282 | 4.8 | 11.3 | 0.00 | 0.00 | 0.00 | 31 | 1018.4 |
| 20260503193302 | 23 | 288 | 6.4 | 11.3 | 0.00 | 0.00 | 0.00 | 31 | 1018.4 |
| 20260503193201 | 23 | 287 | 6.4 | 11.3 | 0.00 | 0.00 | 0.00 | 31 | 1018.5 |
| 20260503192901 | 23 | 261 | 4.8 | 11.3 | 0.00 | 0.00 | 0.00 | 30 | 1018.4 |
| 20260503192801 | 23 | 301 | 8.0 | 11.3 | 0.00 | 0.00 | 0.00 | 30 | 1018.4 |
| 20260503192701 | 23 | 275 | 9.7 | 14.5 | 0.00 | 0.00 | 0.00 | 31 | 1018.4 |
| 20260503192600 | 23 | 292 | 8.0 | 14.5 | 0.00 | 0.00 | 0.00 | 31 | 1018.4 |
| 20260503192505 | 23 | 323 | 4.8 | 14.5 | 0.00 | 0.00 | 0.00 | 30 | 1018.4 |
| 20260503192401 | 23 | 333 | 4.8 | 14.5 | 0.00 | 0.00 | 0.00 | 32 | 1018.4 |
| 20260503192302 | 23 | 265 | 8.0 | 14.5 | 0.00 | 0.00 | 0.00 | 32 | 1018.5 |
| 20260503192101 | 23 | 293 | 4.8 | 14.5 | 0.00 | 0.00 | 0.00 | 34 | 1018.6 |
| 20260503192005 | 23 | 277 | 4.8 | 14.5 | 0.00 | 0.00 | 0.00 | 36 | 1018.6 |
| 20260503191901 | 22 | 262 | 3.2 | 14.5 | 0.00 | 0.00 | 0.00 | 34 | 1018.4 |
| 20260503191801 | 22 | 258 | 12.9 | 14.5 | 0.00 | 0.00 | 0.00 | 36 | 1018.5 |
| 20260503191700 | 22 | 296 | 6.4 | 11.3 | 0.00 | 0.00 | 0.00 | 33 | 1018.5 |
| 20260503191601 | 22 | 297 | 8.0 | 11.3 | 0.00 | 0.00 | 0.00 | 34 | 1018.7 |
| 20260503191505 | 23 | 327 | 4.8 | 11.3 | 0.00 | 0.00 | 0.00 | 33 | 1018.7 |
| 20260503191403 | 23 | 255 | 8.0 | 11.3 | 0.00 | 0.00 | 0.00 | 33 | 1018.7 |
| 20260503191301 | 23 | 280 | 6.4 | 11.3 | 0.00 | 0.00 | 0.00 | 34 | 1018.7 |
| 20260503191201 | 23 | 311 | 6.4 | 11.3 | 0.00 | 0.00 | 0.00 | 33 | 1018.7 |
| 20260503191101 | 23 | 330 | 3.2 | 11.3 | 0.00 | 0.00 | 0.00 | 35 | 1018.7 |
| 20260503191005 | 23 | 273 | 6.4 | 11.3 | 0.00 | 0.00 | 0.00 | 33 | 1018.7 |
| 20260503190901 | 23 | 272 | 4.8 | 14.5 | 0.00 | 0.00 | 0.00 | 34 | 1018.7 |
| 20260503190801 | 23 | 314 | 4.8 | 14.5 | 0.00 | 0.00 | 0.00 | 33 | 1018.7 |
| 20260503190701 | 23 | 271 | 9.7 | 14.5 | 0.00 | 0.00 | 0.00 | 35 | 1018.7 |
| 20260503190302 | 22 | 333 | 4.8 | 14.5 | 0.00 | 0.00 | 0.00 | 33 | 1018.7 |
| 20260503190201 | 22 | 323 | 3.2 | 14.5 | 0.00 | 0.00 | 0.00 | 33 | 1018.8 |
| 20260503190006 | 22 | 267 | 11.3 | 12.9 | 0.00 | 0.00 | 0.00 | 35 | 1018.8 |
| 20260503185802 | 22 | 256 | 4.8 | 11.3 | 0.00 | 0.00 | 0.00 | 34 | 1018.7 |
| 20260503185702 | 22 | 307 | 4.8 | 11.3 | 0.00 | 0.00 | 0.00 | 33 | 1018.7 |
| 20260503185601 | 22 | 302 | 3.2 | 11.3 | 0.00 | 0.00 | 0.00 | 35 | 1018.7 |
| 20260503185505 | 22 | 314 | 3.2 | 11.3 | 0.00 | 0.00 | 0.00 | 35 | 1018.7 |
| 20260503185400 | 22 | 315 | 0.0 | 11.3 | 0.00 | 0.00 | 0.00 | 33 | 1018.7 |
| 20260503185301 | 22 | 331 | 4.8 | 11.3 | 0.00 | 0.00 | 0.00 | 33 | 1018.7 |
| 20260503185200 | 23 | 291 | 4.8 | 11.3 | 0.00 | 0.00 | 0.00 | 33 | 1018.8 |
| 20260503185101 | 23 | 319 | 3.2 | 11.3 | 0.00 | 0.00 | 0.00 | 35 | 1018.7 |
| 20260503184901 | 23 | 301 | 4.8 | 11.3 | 0.00 | 0.00 | 0.00 | 33 | 1018.9 |
| 20260503184802 | 23 | 288 | 6.4 | 11.3 | 0.00 | 0.00 | 0.00 | 32 | 1018.8 |
| 20260503184701 | 24 | 244 | 3.2 | 8.0 | 0.00 | 0.00 | 0.00 | 32 | 1018.9 |
| 20260503184601 | 24 | 189 | 0.0 | 8.0 | 0.00 | 0.00 | 0.00 | 35 | 1018.9 |
| 20260503184505 | 23 | 284 | 3.2 | 8.0 | 0.00 | 0.00 | 0.00 | 33 | 1018.9 |
| 20260503184402 | 23 | 347 | 3.2 | 8.0 | 0.00 | 0.00 | 0.00 | 33 | 1018.9 |
| 20260503184301 | 23 | 278 | 6.4 | 8.0 | 0.00 | 0.00 | 0.00 | 33 | 1018.8 |
| 20260503184202 | 23 | 306 | 3.2 | 8.0 | 0.00 | 0.00 | 0.00 | 34 | 1018.9 |
| 20260503184101 | 23 | 331 | 3.2 | 8.0 | 0.00 | 0.00 | 0.00 | 33 | 1018.9 |
| 20260503184005 | 24 | 312 | 3.2 | 8.0 | 0.00 | 0.00 | 0.00 | 34 | 1018.9 |
| 20260503183902 | 24 | 312 | 3.2 | 8.0 | 0.00 | 0.00 | 0.00 | 32 | 1018.9 |
| 20260503183801 | 24 | 319 | 4.8 | 8.0 | 0.00 | 0.00 | 0.00 | 32 | 1018.9 |
| 20260503183702 | 24 | 307 | 4.8 | 8.0 | 0.00 | 0.00 | 0.00 | 32 | 1018.9 |
| 20260503183505 | 24 | 322 | 3.2 | 9.7 | 0.00 | 0.00 | 0.00 | 36 | 1018.9 |
| 20260503183401 | 23 | 319 | 1.6 | 9.7 | 0.00 | 0.00 | 0.00 | 34 | 1018.9 |
| 20260503183302 | 24 | 324 | 4.8 | 9.7 | 0.00 | 0.00 | 0.00 | 32 | 1018.9 |
| 20260503183201 | 24 | 299 | 1.6 | 9.7 | 0.00 | 0.00 | 0.00 | 33 | 1018.9 |
| 20260503183007 | 23 | 350 | 4.8 | 9.7 | 0.00 | 0.00 | 0.00 | 34 | 1018.9 |
| 20260503182901 | 23 | 301 | 4.8 | 9.7 | 0.00 | 0.00 | 0.00 | 34 | 1018.9 |
| 20260503182801 | 23 | 313 | 0.0 | 9.7 | 0.00 | 0.00 | 0.00 | 35 | 1019.0 |
| 20260503182701 | 23 | 284 | 3.2 | 8.0 | 0.00 | 0.00 | 0.00 | 34 | 1019.0 |
| 20260503182601 | 23 | 5 | 8.0 | 8.0 | 0.00 | 0.00 | 0.00 | 36 | 1019.0 |
| 20260503182403 | 23 | 245 | 4.8 | 11.3 | 0.00 | 0.00 | 0.00 | 33 | 1019.0 |
| 20260503182300 | 23 | 313 | 0.0 | 11.3 | 0.00 | 0.00 | 0.00 | 34 | 1019.1 |
| 20260503182202 | 23 | 258 | 4.8 | 11.3 | 0.00 | 0.00 | 0.00 | 35 | 1019.1 |
| 20260503182103 | 23 | 301 | 1.6 | 11.3 | 0.00 | 0.00 | 0.00 | 35 | 1019.0 |
| 20260503181901 | 23 | 340 | 4.8 | 11.3 | 0.00 | 0.00 | 0.00 | 33 | 1019.1 |
| 20260503181803 | 23 | 288 | 6.4 | 11.3 | 0.00 | 0.00 | 0.00 | 35 | 1019.0 |
| 20260503181701 | 23 | 299 | 4.8 | 11.3 | 0.00 | 0.00 | 0.00 | 34 | 1019.1 |
| 20260503181601 | 23 | 253 | 0.0 | 12.9 | 0.00 | 0.00 | 0.00 | 33 | 1019.1 |
| 20260503181505 | 23 | 283 | 8.0 | 12.9 | 0.00 | 0.00 | 0.00 | 32 | 1019.1 |
| 20260503181401 | 23 | 155 | 0.0 | 12.9 | 0.00 | 0.00 | 0.00 | 32 | 1019.1 |
| 20260503181300 | 23 | 360 | 3.2 | 12.9 | 0.00 | 0.00 | 0.00 | 35 | 1019.1 |
| 20260503181202 | 23 | 276 | 1.6 | 12.9 | 0.00 | 0.00 | 0.00 | 35 | 1019.1 |
| 20260503181005 | 23 | 304 | 4.8 | 12.9 | 0.00 | 0.00 | 0.00 | 33 | 1019.1 |
| 20260503180601 | 23 | 345 | 4.8 | 9.7 | 0.00 | 0.00 | 0.00 | 34 | 1019.1 |
| 20260503180504 | 23 | 299 | 6.4 | 9.7 | 0.00 | 0.00 | 0.00 | 35 | 1019.1 |
| 20260503180401 | 23 | 293 | 6.4 | 9.7 | 0.00 | 0.00 | 0.00 | 34 | 1019.2 |
| 20260503180301 | 23 | 352 | 4.8 | 9.7 | 0.00 | 0.00 | 0.00 | 35 | 1019.2 |
| 20260503180201 | 23 | 316 | 4.8 | 9.7 | 0.00 | 0.00 | 0.00 | 34 | 1019.3 |
| 20260503175901 | 22 | 246 | 6.4 | 9.7 | 0.00 | 0.00 | 0.00 | 35 | 1019.2 |
| 20260503175801 | 22 | 286 | 4.8 | 9.7 | 0.00 | 0.00 | 0.00 | 34 | 1019.2 |
| 20260503175701 | 22 | 262 | 8.0 | 9.7 | 0.00 | 0.00 | 0.00 | 35 | 1019.2 |
| 20260503175601 | 22 | 292 | 8.0 | 9.7 | 0.00 | 0.00 | 0.00 | 34 | 1019.2 |
| 20260503175505 | 23 | 284 | 4.8 | 9.7 | 0.00 | 0.00 | 0.00 | 34 | 1019.2 |
| 20260503175402 | 23 | 319 | 6.4 | 9.7 | 0.00 | 0.00 | 0.00 | 31 | 1019.3 |
| 20260503175301 | 23 | 134 | 3.2 | 9.7 | 0.00 | 0.00 | 0.00 | 31 | 1019.3 |
| 20260503175201 | 23 | 99 | 1.6 | 11.3 | 0.00 | 0.00 | 0.00 | 33 | 1019.3 |
| 20260503175005 | 23 | 31 | 1.6 | 11.3 | 0.00 | 0.00 | 0.00 | 33 | 1019.4 |
| 20260503174901 | 22 | 12 | 1.6 | 11.3 | 0.00 | 0.00 | 0.00 | 32 | 1019.4 |
| 20260503174600 | 22 | 321 | 4.8 | 11.3 | 0.00 | 0.00 | 0.00 | 34 | 1019.4 |
| 20260503174505 | 22 | 340 | 4.8 | 11.3 | 0.00 | 0.00 | 0.00 | 32 | 1019.4 |
| 20260503174401 | 22 | 319 | 4.8 | 11.3 | 0.00 | 0.00 | 0.00 | 32 | 1019.5 |
| 20260503174302 | 22 | 350 | 4.8 | 11.3 | 0.00 | 0.00 | 0.00 | 35 | 1019.4 |